Details From EKCH - Kastrup
To ESGG - Goteborg Landvetter
Flight Number -
Tags Generated
Created
Modified
Stats Distance 122 nm / 226 km
Max Altitude 0 ft / 0 m
Waypoints 2
Social Downloads 1
Likes 0
Share VATSIM

Download

Looking for another format? Having issues loading an existing format? Contact us
Advertisement - Login to hide

Notes

Generated

Route

EKCH ESGG

ID Type Via Altitude Latitude Longitude Leg Dist Tot Dist Heading (true) Name
O EKCH APT - 0 ft / 0 m 55.62761˚ 12.62973˚ - 0 nm - -
O ESGG APT - 0 ft / 0 m 57.64952˚ 12.26771˚ 122 nm 122 nm 355° / 354° -

Altitude Profile

Advertisement - Login to hide

EKCH

Details ICAO EKCH (CPH)
Name Kastrup
Region Denmark / Faroe Islands
Timezone Europe/Copenhagen (UTC+1.0)
Stats Elevation 17 ft / 5 m (AMSL)
Location 55.612915° 12.640961°
Runways 3
Magnetic Variation 3.725° E

METAR

EKCH 161120Z 28008KT 9999 FEW028 03/M01 Q1001 NOSIG

Decode

TAF

TAF EKCH 160516Z 1606/1706 28008KT 9999 SCT030 TEMPO 1606/1608 2500 -SHRASN BKN006 SCT020CB TEMPO 1620/1706 4000 SHRASN BKN008 SCT020CB

Decode

Departure Runways

ID Width Length Bearing (true) Bearing (mag) Surface Threshold Offset Overrun Length
04L 148 ft / 45 m 11,848 ft / 3,611 m 41.15° 37.43° Asphalt 0 ft / 0 m 0 ft / 0 m
04R 148 ft / 45 m 10,814 ft / 3,296 m 41.15° 37.43° Asphalt 0 ft / 0 m 0 ft / 0 m
12 148 ft / 45 m 10,047 ft / 3,063 m 123.21° 119.49° Asphalt 2,313 ft / 705 m 0 ft / 0 m
22L 148 ft / 45 m 10,814 ft / 3,296 m 221.17° 217.45° Asphalt 0 ft / 0 m 0 ft / 0 m
22R 148 ft / 45 m 11,848 ft / 3,611 m 221.18° 217.46° Asphalt 2,018 ft / 615 m 0 ft / 0 m
30 148 ft / 45 m 10,047 ft / 3,063 m 303.25° 299.53° Asphalt 886 ft / 270 m 0 ft / 0 m

ESGG

Details ICAO ESGG (GOT)
Name Goteborg Landvetter
Region Sweden
Timezone Europe/Stockholm (UTC+1.0)
Stats Elevation 506 ft / 154 m (AMSL)
Location 57.662836° 12.279819°
Runways 1
Magnetic Variation 3.716° E

METAR

ESGG 161120Z 31004KT 9999 SCT018 M02/M04 Q0999 R21/19//95

Decode

TAF

TAF AMD ESGG 160614Z 1606/1706 33004KT 9999 SCT005 BKN025 PROB40 1606/1609 BKN003 TEMPO 1609/1622 2000 -SN BKN006 TEMPO 1622/1702 BKN008

Decode

Destination Runways

ID Width Length Bearing (true) Bearing (mag) Surface Threshold Offset Overrun Length
03 148 ft / 45 m 10,804 ft / 3,293 m 25.94° 22.22° Asphalt 0 ft / 0 m 207 ft / 63 m
21 148 ft / 45 m 10,804 ft / 3,293 m 205.96° 202.24° Asphalt 0 ft / 0 m 207 ft / 63 m

Approach Navaids

Runway Type Ident Frequency Range Bearing (true) Bearing (mag) Slope Elevation
03 Localiser SSG 110.30 MHz 18 nm / 33 km 25.98° 22.26° - 506 ft / 154 m (AMSL)
03 Glidescope SSG 110.30 MHz 10 nm / 19 km 25.95° 22.24° 3.00° 506 ft / 154 m (AMSL)
21 Localiser NGG 108.50 MHz 18 nm / 33 km 205.92° 202.21° - 506 ft / 154 m (AMSL)
21 Glidescope NGG 108.50 MHz 10 nm / 19 km 205.95° 202.24° 3.00° 506 ft / 154 m (AMSL)

Popular Alternatives